When you browse on this site, cookies collect data to enhance your experience and personalize the content and advertising you see.
Visit our Privacy Policy to learn more. By continuing to use the site, you agree to this use of cookies and data.
  • En España
  • Lista de países
  • Para 7 días
  • Temperatura del agua
  • Mapa Satelital
  • El tiempo en el mapa
  • Informadores
  • user-avatar
    Iniciar sesión

    Tiempo cada hora Wiktoria

    Hoy, 20 Abril, Sábado

    Tiempo Temperatura Precipitaciones Viento Presión Humedad
    00:00 +16°C° 0 mm 1 mps 756 mmHg 50%
    01:00 +16°C° 0 mm 2 mps 756 mmHg 52%
    02:00 +15°C° 0 mm 2 mps 756 mmHg 56%
    03:00 +15°C° 0 mm 2 mps 756 mmHg 60%
    04:00 +15°C° 0 mm 2 mps 756 mmHg 63%
    05:00 +15°C° 0 mm 2 mps 756 mmHg 67%
    06:00 +15°C° 0 mm 2 mps 756 mmHg 72%
    07:00 +15°C° 0 mm 2 mps 756 mmHg 77%
    08:00 +17°C° 0 mm 3 mps 756 mmHg 69%
    09:00 +20°C° 0 mm 3 mps 756 mmHg 61%
    10:00 +25°C° 0 mm 4 mps 756 mmHg 55%
    11:00 +26°C° 0 mm 3 mps 755 mmHg 49%
    12:00 +28°C° 0 mm 3 mps 755 mmHg 43%
    13:00 +29°C° 0 mm 3 mps 754 mmHg 37%
    14:00 +30°C° 0 mm 3 mps 754 mmHg 35%
    15:00 +30°C° 0 mm 2 mps 753 mmHg 33%
    16:00 +30°C° 0 mm 2 mps 753 mmHg 31%
    17:00 +28°C° 0 mm 2 mps 753 mmHg 36%
    18:00 +26°C° 0 mm 2 mps 753 mmHg 40%
    19:00 +23°C° 0 mm 2 mps 753 mmHg 45%
    20:00 +22°C° 0 mm 3 mps 753 mmHg 46%
    21:00 +21°C° 0 mm 3 mps 753 mmHg 47%
    22:00 +21°C° 0 mm 3 mps 753 mmHg 49%
    23:00 +20°C° 0 mm 3 mps 753 mmHg 51%

    Mañana, 21 Abril, Domingo

    Tiempo Temperatura Precipitaciones Viento Presión Humedad
    00:00 +20°C° 0 mm 3 mps 753 mmHg 52%
    01:00 +19°C° 0 mm 4 mps 753 mmHg 54%
    02:00 +19°C° 0 mm 4 mps 752 mmHg 55%
    03:00 +19°C° 0 mm 4 mps 752 mmHg 56%
    04:00 +19°C° 0 mm 5 mps 752 mmHg 56%
    05:00 +19°C° 0 mm 5 mps 752 mmHg 58%
    06:00 +19°C° 0 mm 5 mps 752 mmHg 60%
    07:00 +17°C° 0 mm 5 mps 752 mmHg 62%
    08:00 +20°C° 0 mm 6 mps 753 mmHg 61%
    09:00 +21°C° 0 mm 6 mps 753 mmHg 59%
    10:00 +23°C° 0 mm 6 mps 753 mmHg 58%
    11:00 +24°C° 0 mm 6 mps 753 mmHg 54%
    12:00 +27°C° 0 mm 6 mps 752 mmHg 50%
    13:00 +28°C° 0 mm 6 mps 752 mmHg 46%
    14:00 +29°C° 0 mm 5 mps 752 mmHg 45%
    15:00 +29°C° 0 mm 4 mps 751 mmHg 43%
    16:00 +29°C° 0 mm 3 mps 751 mmHg 42%
    17:00 +27°C° 0.3 mm 2 mps 751 mmHg 46%
    18:00 +26°C° 0.3 mm 2 mps 751 mmHg 51%
    19:00 +25°C° 0.3 mm 1 mps 751 mmHg 55%
    20:00 +23°C° 1.2 mm 1 mps 752 mmHg 63%
    21:00 +22°C° 1.2 mm 1 mps 752 mmHg 70%
    22:00 +21°C° 1.2 mm 1 mps 752 mmHg 78%
    23:00 +19°C° 0.2 mm 2 mps 753 mmHg 81%

    Pasado mañana, 22 Abril, Lunes

    Tiempo Temperatura Precipitaciones Viento Presión Humedad
    00:00 +19°C° 0.2 mm 2 mps 753 mmHg 84%
    01:00 +18°C° 0.2 mm 2 mps 754 mmHg 87%
    02:00 +18°C° 0 mm 2 mps 754 mmHg 88%
    03:00 +17°C° 0 mm 3 mps 754 mmHg 90%
    04:00 +17°C° 0 mm 3 mps 754 mmHg 91%
    05:00 +17°C° 0 mm 3 mps 754 mmHg 91%
    06:00 +16°C° 0 mm 3 mps 754 mmHg 91%
    07:00 +16°C° 0 mm 3 mps 755 mmHg 91%
    08:00 +17°C° 0 mm 4 mps 755 mmHg 86%
    09:00 +18°C° 0 mm 4 mps 755 mmHg 82%
    10:00 +19°C° 0 mm 4 mps 756 mmHg 77%
    11:00 +19°C° 0 mm 4 mps 756 mmHg 73%
    12:00 +20°C° 0 mm 3 mps 755 mmHg 69%
    13:00 +21°C° 0 mm 3 mps 755 mmHg 65%
    14:00 +22°C° 0 mm 3 mps 755 mmHg 63%
    15:00 +22°C° 0 mm 3 mps 755 mmHg 61%
    16:00 +22°C° 0 mm 4 mps 755 mmHg 58%
    17:00 +20°C° 0 mm 4 mps 755 mmHg 61%
    18:00 +19°C° 0 mm 4 mps 756 mmHg 63%
    19:00 +16°C° 0 mm 5 mps 756 mmHg 66%
    20:00 +15°C° 0 mm 4 mps 757 mmHg 68%
    21:00 +14°C° 0 mm 4 mps 757 mmHg 70%
    22:00 +14°C° 0 mm 4 mps 758 mmHg 73%
    23:00 +13°C° 0 mm 4 mps 758 mmHg 75%

    23 Abril, Martes

    Tiempo Temperatura Precipitaciones Viento Presión Humedad
    00:00 +13°C° 0 mm 3 mps 757 mmHg 78%
    01:00 +12°C° 0 mm 3 mps 757 mmHg 81%
    02:00 +12°C° 0 mm 3 mps 757 mmHg 82%
    03:00 +12°C° 0 mm 3 mps 757 mmHg 84%
    04:00 +11°C° 0 mm 3 mps 757 mmHg 86%
    05:00 +11°C° 0 mm 3 mps 758 mmHg 87%
    06:00 +11°C° 0 mm 3 mps 758 mmHg 88%
    07:00 +12°C° 0 mm 2 mps 758 mmHg 89%
    08:00 +14°C° 0 mm 2 mps 759 mmHg 82%
    09:00 +17°C° 0 mm 2 mps 759 mmHg 75%
    10:00 +20°C° 0 mm 1 mps 759 mmHg 68%
    11:00 +22°C° 0 mm 1 mps 758 mmHg 63%
    12:00 +24°C° 0 mm 1 mps 758 mmHg 57%
    13:00 +25°C° 0 mm 1 mps 757 mmHg 52%
    14:00 +25°C° 0 mm 1 mps 757 mmHg 50%
    15:00 +25°C° 0 mm 1 mps 756 mmHg 48%
    16:00 +25°C° 0 mm 1 mps 756 mmHg 46%
    17:00 +24°C° 0 mm 1 mps 756 mmHg 50%
    18:00 +21°C° 0 mm 2 mps 757 mmHg 54%
    19:00 +19°C° 0 mm 2 mps 757 mmHg 58%
    20:00 +18°C° 0 mm 2 mps 757 mmHg 61%
    21:00 +17°C° 0 mm 3 mps 758 mmHg 65%
    22:00 +16°C° 0 mm 3 mps 758 mmHg 68%
    23:00 +16°C° 0 mm 3 mps 758 mmHg 70%

    24 Abril, Miércoles

    Tiempo Temperatura Precipitaciones Viento Presión Humedad
    00:00 +15°C° 0 mm 2 mps 757 mmHg 73%
    01:00 +15°C° 0 mm 2 mps 757 mmHg 76%
    02:00 +14°C° 0 mm 2 mps 757 mmHg 78%
    03:00 +14°C° 0 mm 2 mps 757 mmHg 81%
    04:00 +14°C° 0 mm 2 mps 756 mmHg 83%
    05:00 +14°C° 0 mm 2 mps 757 mmHg 83%
    06:00 +14°C° 0 mm 2 mps 757 mmHg 83%
    07:00 +14°C° 0 mm 2 mps 757 mmHg 83%
    08:00 +16°C° 0 mm 2 mps 757 mmHg 76%
    09:00 +19°C° 0 mm 2 mps 757 mmHg 70%
    10:00 +22°C° 0 mm 1 mps 757 mmHg 64%
    11:00 +23°C° 0 mm 2 mps 757 mmHg 58%
    12:00 +24°C° 0 mm 2 mps 756 mmHg 51%
    13:00 +26°C° 0 mm 3 mps 755 mmHg 45%
    14:00 +25°C° 0 mm 3 mps 755 mmHg 41%
    15:00 +25°C° 0 mm 3 mps 755 mmHg 37%
    16:00 +25°C° 0 mm 4 mps 754 mmHg 32%
    17:00 +22°C° 0 mm 3 mps 755 mmHg 35%
    18:00 +20°C° 0 mm 3 mps 755 mmHg 37%
    19:00 +18°C° 0 mm 2 mps 755 mmHg 40%
    20:00 +17°C° 0 mm 2 mps 756 mmHg 44%
    21:00 +16°C° 0 mm 3 mps 756 mmHg 49%
    22:00 +14°C° 0 mm 3 mps 756 mmHg 53%
    23:00 +14°C° 0 mm 3 mps 756 mmHg 60%

    25 Abril, Jueves

    Tiempo Temperatura Precipitaciones Viento Presión Humedad
    00:00 +13°C° 0 mm 3 mps 756 mmHg 67%
    01:00 +12°C° 0 mm 3 mps 756 mmHg 74%
    02:00 +12°C° 0 mm 3 mps 756 mmHg 78%
    03:00 +12°C° 0 mm 2 mps 756 mmHg 81%
    04:00 +10°C° 0 mm 2 mps 756 mmHg 85%
    05:00 +10°C° 0 mm 2 mps 756 mmHg 87%
    06:00 +10°C° 0 mm 2 mps 756 mmHg 89%
    07:00 +9°C° 0 mm 2 mps 757 mmHg 91%
    08:00 +12°C° 0 mm 2 mps 757 mmHg 82%
    09:00 +14°C° 0 mm 2 mps 757 mmHg 73%
    10:00 +16°C° 0 mm 2 mps 757 mmHg 64%
    11:00 +18°C° 0 mm 3 mps 757 mmHg 57%
    12:00 +19°C° 0 mm 3 mps 756 mmHg 49%
    13:00 +21°C° 0 mm 4 mps 756 mmHg 41%
    14:00 +21°C° 0 mm 4 mps 755 mmHg 39%
    15:00 +21°C° 0 mm 4 mps 755 mmHg 37%
    16:00 +21°C° 0 mm 4 mps 755 mmHg 36%
    17:00 +19°C° 0 mm 3 mps 755 mmHg 40%
    18:00 +18°C° 0 mm 3 mps 755 mmHg 45%
    19:00 +16°C° 0 mm 2 mps 756 mmHg 49%
    20:00 +15°C° 0 mm 2 mps 756 mmHg 54%
    21:00 +13°C° 0 mm 3 mps 756 mmHg 58%
    22:00 +12°C° 0 mm 3 mps 756 mmHg 63%
    23:00 +12°C° 0 mm 2 mps 756 mmHg 69%
    Mostrar más